This demonstration page uses our WeatherBlox Daily Observations layout. Learn more.

Hourly Observations for December 29, 2018

Temp ( °F °C ) Dew Point ( °F °C ) Humidity (%) Winds ( mph kmh ) Pressure ( in mb ) Visibility ( mi km ) Precip ( " mm )
12:10 am 00:10 Clear 5 -15 2 -16.4 89 89 WNW 6 9 30.53 1034 10 16.0934 0 0
12:35 am 00:35 Clear 5 -15.1 2 -16.5 89 89 WNW 3 6 30.53 1034 10 16.0934 0 0
12:55 am 00:55 Clear 4 -15.5 2 -16.9 89 89 W 6 9 30.56 1035 10 16.0934 0 0
1:15 am 01:15 Clear 5 -15 2 -16.5 88 88 WNW 3 6 30.53 1034 10 16.0934 0 0
1:35 am 01:35 Clear 4 -15.5 2 -16.9 89 89 WNW 6 9 30.56 1035 10 16.0934 0 0
1:55 am 01:55 Clear 5 -15.1 2 -16.5 89 89 Calm 30.53 1034 10 16.0934 0 0
2:15 am 02:15 Clear 3 -16 1 -17.5 88 88 WNW 3 6 30.56 1035 10 16.0934 0 0
2:35 am 02:35 Clear 5 -15.2 2 -16.4 91 91 W 7 11 30.53 1034 10 16.0934 0 0
2:55 am 02:55 Clear 5 -14.8 3 -16 91 91 Calm 30.53 1034 10 16.0934 0 0
3:15 am 03:15 Clear 5 -15.2 2 -16.5 90 90 WNW 3 6 30.53 1034 10 16.0934 0 0
3:35 am 03:35 Clear 4 -15.5 2 -16.7 91 91 Calm 30.56 1035 10 16.0934 0 0
3:55 am 03:55 Clear 3 -15.9 1 -17 91 91 WSW 5 7 30.56 1035 10 16.0934 0 0
4:15 am 04:15 Clear 6 -14.7 3 -15.9 91 91 Calm 30.53 1034 10 16.0934 0 0
4:35 am 04:35 Clear 6 -14.4 4 -15.6 91 91 Calm 30.5 1033 10 16.0934 0 0
4:55 am 04:55 Clear 5 -14.9 3 -16 91 91 Calm 30.5 1033 10 16.0934 0 0
5:15 am 05:15 Clear 6 -14.7 4 -15.8 91 91 W 3 6 30.5 1033 10 16.0934 0 0
5:35 am 05:35 Clear 4 -15.4 2 -16.5 91 91 Calm 30.5 1033 10 16.0934 0 0
5:55 am 05:55 Clear 6 -14.2 4 -15.5 90 90 SSW 5 7 30.5 1033 10 16.0934 0 0
6:15 am 06:15 Clear 6 -14.7 3 -16 90 90 SW 3 6 30.5 1033 10 16.0934 0 0
6:35 am 06:35 Clear 5 -15 3 -16.3 90 90 SW 5 7 30.5 1033 10 16.0934 0 0
6:55 am 06:55 Clear 6 -14.7 3 -16 90 90 Calm 30.53 1034 10 16.0934 0 0
7:15 am 07:15 Clear 6 -14.4 4 -15.5 91 91 Calm 30.53 1034 10 16.0934 0 0
7:35 am 07:35 Clear 5 -15.1 2 -16.5 89 89 Calm 30.53 1034 10 16.0934 0 0
7:55 am 07:55 Clear 4 -15.3 2 -16.6 90 90 SW 3 6 30.53 1034 10 16.0934 0 0
8:15 am 08:15 Sunny 4 -15.7 1 -17 90 90 Calm 30.56 1035 10 16.0934 0 0
8:35 am 08:35 Sunny 5 -15 3 -16.2 91 91 SW 6 9 30.53 1034 10 16.0934 0 0
8:55 am 08:55 Sunny 6 -14.4 4 -15.5 91 91 SW 3 6 30.53 1034 10 16.0934 0 0
9:15 am 09:15 Sunny 7 -13.7 5 -14.8 92 92 SW 8 13 30.53 1034 10 16.0934 0 0
9:35 am 09:35 Sunny 9 -12.7 7 -14 90 90 SW 6 9 30.53 1034 10 16.0934 0 0
9:55 am 09:55 Sunny 12 -10.9 9 -12.6 87 87 SW 7 11 30.48 1032 10 16.0934 0 0
10:15 am 10:15 Sunny 14 -9.9 10 -12.2 83 83 SW 9 15 30.45 1031 10 16.0934 0 0
10:35 am 10:35 Sunny 16 -9 11 -11.9 80 80 SW 8 13 30.45 1031 10 16.0934 0 0
10:55 am 10:55 Sunny 17 -8.5 11 -11.9 77 77 SW 10 17 30.42 1030 10 16.0934 0 0
11:15 am 11:15 Sunny 17 -8.3 11 -11.6 77 77 SW 12 19 30.42 1030 10 16.0934 0 0
11:35 am 11:35 Sunny 18 -7.8 12 -10.9 79 79 SW 9 15 30.39 1029 10 16.0934 0 0
11:55 am 11:55 Sunny 18 -7.6 13 -10.6 79 79 SW 9 15 30.33 1027 10 16.0934 0 0
12:15 pm 12:15 Sunny 19 -7.5 13 -10.4 80 80 SW 9 15 30.33 1027 10 16.0934 0 0
12:35 pm 12:35 Sunny 19 -7 14 -10 79 79 SW 10 17 30.3 1026 10 16.0934 0 0
12:55 pm 12:55 Sunny 19 -7.2 14 -10 81 81 SW 13 20 30.3 1026 10 16.0934 0 0
1:15 pm 13:15 Sunny 20 -6.7 15 -9.7 79 79 SW 10 17 30.3 1026 10 16.0934 0 0
1:35 pm 13:35 Sunny 21 -6 15 -9.2 78 78 SW 13 20 30.3 1026 10 16.0934 0 0
1:55 pm 13:55 Sunny 22 -5.8 16 -9.1 78 78 SW 13 20 30.3 1026 10 16.0934 0 0
2:15 pm 14:15 Sunny 22 -5.5 16 -8.7 78 78 SW 10 17 30.3 1026 10 16.0934 0 0
2:35 pm 14:35 Sunny 23 -4.8 17 -8.4 76 76 SW 10 17 30.27 1025 10 16.0934 0 0
2:55 pm 14:55 Sunny 24 -4.6 17 -8.1 77 77 SW 10 17 30.27 1025 10 16.0934 0 0
3:15 pm 15:15 Sunny 25 -3.8 18 -7.6 75 75 SSW 13 20 30.24 1024 10 16.0934 0 0
3:35 pm 15:35 Sunny 26 -3.5 19 -7.4 75 75 SSW 12 19 30.24 1024 10 16.0934 0 0
3:55 pm 15:55 Sunny 26 -3.4 19 -7.1 76 76 SW 12 19 30.24 1024 10 16.0934 0 0
4:15 pm 16:15 Sunny 26 -3.5 19 -7.1 76 76 SSW 10 17 30.24 1024 10 16.0934 0 0
4:35 pm 16:35 Sunny 25 -3.7 19 -7.3 76 76 SSW 12 19 30.24 1024 10 16.0934 0 0
4:55 pm 16:55 Sunny 25 -4.1 19 -7.5 77 77 SSW 12 19 30.21 1023 10 16.0934 0 0
5:15 pm 17:15 Sunny 24 -4.5 18 -7.7 79 79 SSW 13 20 30.21 1023 10 16.0934 0 0
5:35 pm 17:35 Clear 24 -4.7 18 -8 78 78 S 14 22 30.21 1023 10 16.0934 0 0
5:55 pm 17:55 Clear 23 -4.8 17 -8.1 78 78 S 12 19 30.18 1022 10 16.0934 0 0
6:15 pm 18:15 Clear 23 -5 17 -8.3 78 78 SSW 14 22 30.18 1022 10 16.0934 0 0
6:35 pm 18:35 Clear 22 -5.5 17 -8.5 80 80 SSW 13 20 30.18 1022 10 16.0934 0 0
6:55 pm 18:55 Clear 22 -5.7 17 -8.5 81 81 SSW 12 19 30.18 1022 10 16.0934 0 0
7:15 pm 19:15 Clear 21 -6.2 16 -8.8 82 82 SSW 12 19 30.24 1024 10 16.0934 0 0
7:35 pm 19:35 Clear 21 -6.2 16 -9 81 81 SSW 14 22 30.24 1024 10 16.0934 0 0
7:55 pm 19:55 Clear 20 -6.4 15 -9.3 80 80 SSW 15 24 30.24 1024 10 16.0934 0 0
8:15 pm 20:15 Clear 20 -6.8 14 -9.8 79 79 SSW 15 24 30.21 1023 10 16.0934 0 0
8:35 pm 20:35 Clear 19 -7 14 -10 79 79 SSW 16 26 30.21 1023 10 16.0934 0 0
8:55 pm 20:55 Clear 19 -7.3 14 -10.1 81 81 SSW 15 24 30.18 1022 10 16.0934 0 0
9:15 pm 21:15 Clear 19 -7.4 14 -10.1 81 81 SSW 15 24 30.18 1022 10 16.0934 0 0
9:35 pm 21:35 Clear 19 -7.5 14 -10.2 81 81 SSW 18 30 30.18 1022 10 16.0934 0 0
9:55 pm 21:55 Clear 18 -7.6 14 -10 83 83 SSW 20 31 30.18 1022 10 16.0934 0 0
10:15 pm 22:15 Clear 18 -7.6 14 -10 83 83 SW 14 22 30.15 1021 10 16.0934 0 0
10:35 pm 22:35 Clear 18 -7.8 14 -10 84 84 SW 12 19 30.15 1021 10 16.0934 0 0
10:55 pm 22:55 Clear 18 -8 14 -10 86 86 SSW 14 22 30.15 1021 10 16.0934 0 0
11:15 pm 23:15 Clear 17 -8.2 14 -10 87 87 SW 12 19 30.15 1021 10 16.0934 0 0
11:35 pm 23:35 Clear 17 -8.1 14 -10 86 86 SSW 12 19 30.15 1021 10 16.0934 0 0
11:55 pm 23:55 Clear 17 -8.1 14 -9.8 88 88 SW 12 19 30.12 1020 10 16.0934 0 0

Powered by AerisWeather